Location: *
(48.8489°N, 2.3218°E)
Time: 18:27:08
(UTC+00:00)

USA 267 - Pass Details

Date: 23 August 2019
Orbit: 1102 x 1106 km, 123.0° (Epoch: 08 October)

Event Time Altitude Azimuth Distance (km) Brightness Sun altitude
Rises 20:53:58 0° 61° (ENE) 3,928 6.0 -18.0°
Reaches altitude 10° 20:56:30 10° 57° (ENE) 2,969 5.4 -18.3°
Maximum altitude 21:02:49 53° 343° (NNW) 1,337 4.0 -19.1°
Drops below altitude 10° 21:09:08 10° 269° (W) 2,967 6.1 -19.8°
Sets 21:11:40 0° 265° (W) 3,924 6.7 -20.1°
